Flag for U.S.A. Weather past 2 weeks in Savannah, Georgia, U.S.A.

Now
40 °F

Clear.


Feels Like: 31 °F
Forecast: 37 / 54 °F
Wind: 16 mph from West

Location: Hunter U. S. Army Airfield

Current Time: Jan 27, 2015 at 5:32:19 AM

Latest Report: Jan 27, 2015 at 4:58 AM


Visibility: 10 mi

Pressure: 29.86 "Hg

Humidity: 64%

Dew point: 28 °F

Location of SavannahLocation

Historic Weather in Savannah — Graph

°F

Savannah temperature yesterday

Maximum temperature yesterday: 58 °F (at 11:58 AM)
Minimum temperature yesterday: 40 °F (at 11:58 PM)
Average temperature yesterday: 50 °F

Past Weeks' High & Low Weather Summary

 TemperatureHumidityPressure
High73 °F (Jan 21, 2:58 PM)100% (Jan 12, 3:57 AM)30.32 "Hg (Jan 12, 3:57 AM)
Low32 °F (Jan 17, 6:03 AM)23% (Jan 19, 2:58 PM)29.59 "Hg (Jan 24, 4:58 AM)
Average51 °F81%30.07 "Hg
* Reported Jan 12 3:57 AM — Jan 27 3:58 AM, Savannah, Weather by CustomWeather, © 2014

Note: Actual official high and low records may vary slightly from our data, if they occured in-between our weather recording intervals... More about our weather records

Advertising

Savannah weather history for previous 24 hours

 ConditionsComfort  
Time TempWeatherWind HumidityBarometerVisibility
3:58 AM
Jan 27
38 °FClear.13 mph71%29.86 "Hg10 mi
2:58 AM38 °FClear.13 mph71%29.87 "Hg10 mi
1:58 AM39 °FClear.14 mph70%29.86 "Hg10 mi
12:58 AM40 °FPassing clouds.8 mph68%29.86 "Hg10 mi
11:58 PM
Jan 26
40 °FPassing clouds.9 mph67%29.86 "Hg10 mi
10:58 PM42 °FClear.14 mph66%29.86 "Hg10 mi
9:58 PM45 °FPassing clouds.13 mph62%29.85 "Hg10 mi
8:58 PM48 °FOvercast.13 mph58%29.84 "Hg10 mi
7:58 PM49 °FOvercast.16 mph61%29.81 "Hg10 mi
6:58 PM49 °FPassing clouds.15 mph66%29.79 "Hg10 mi
5:58 PM50 °FClear.13 mph63%29.76 "Hg10 mi
4:58 PM54 °FPassing clouds.17 mph55%29.74 "Hg10 mi
3:58 PM54 °FPartly sunny.16 mph54%29.73 "Hg10 mi
2:58 PM54 °FPartly sunny.18 mph56%29.71 "Hg10 mi
1:58 PM55 °FPartly sunny.14 mph56%29.71 "Hg10 mi
12:58 PM54 °FBroken clouds.17 mph58%29.71 "Hg10 mi
11:58 AM58 °FScattered clouds.17 mph51%29.73 "Hg10 mi
10:58 AM55 °FScattered clouds.15 mph57%29.75 "Hg10 mi
9:58 AM53 °FSunny.15 mph65%29.75 "Hg10 mi
8:58 AM50 °FSunny.13 mph82%29.75 "Hg10 mi
7:58 AM47 °FSunny.8 mph95%29.75 "Hg10 mi
6:58 AM47 °FClear.6 mph99%29.73 "Hg10 mi
5:58 AM48 °FClear.6 mph97%29.73 "Hg10 mi
Weather by CustomWeather, © 2014

See weather overviewHow to use our weather pages